Location: Alphen
(52.1351°N, 4.6549°E)
Time: 01:14:13
(UTC+00:00)

ALOS - Pass Details

Date: 27 January 2021
Orbit: 682 x 685 km, 97.9° (Epoch: 26 February)

Event Time Altitude Azimuth Distance (km) Brightness Sun altitude
Rises 04:32:36 0° 12° (NNE) 3,061 5.8 -26.9°
Reaches altitude 10° 04:34:51 10° 11° (N) 2,140 5.0 -26.5°
Enters shadow 04:37:50 39° 2° (N) 1,025 3.1 -26.1°
